GW3154 Weather Reports


Display with metric or nautical units.
time (UTC)temp
F
wind
direction
speed
MPH
gust
MPH
rain 1hr
in
rain 24hr
in
rain mn
in
humidity
%
barometer
mb
20260901224206 68 185 1.0 1.0 0.00 0.00 0.00 67 1012.9
20260901222705 68 206 4.0 6.0 0.00 0.00 0.00 68 1012.9
20260901221204 67 183 3.0 5.0 0.00 0.00 0.00 68 1013.0
20260901215701 68 292 3.0 5.0 0.00 0.00 0.00 66 1013.1
20260901214200 68 196 1.0 1.0 0.00 0.00 0.00 67 1012.8
20260901212700 69 168 0.0 1.0 0.00 0.00 0.00 64 1012.8
20260901211158 68 178 2.0 2.0 0.00 0.00 0.00 65 1012.8
20260901205657 67 195 4.0 5.0 0.00 0.00 0.00 68 1012.7
20260901204154 67 246 2.0 2.0 0.00 0.00 0.00 69 1012.7
20260901202654 67 185 3.0 5.0 0.00 0.00 0.00 70 1012.9
20260901201151 67 169 2.0 3.0 0.00 0.00 0.00 70 1012.9
20260901195649 66 178 4.0 5.0 0.00 0.00 0.00 74 1012.9
20260901194146 66 175 3.0 3.0 0.00 0.00 0.00 74 1013.3
20260901192642 66 190 4.0 5.0 0.00 0.00 0.00 76 1013.4
20260901191141 66 172 3.0 5.0 0.00 0.00 0.00 75 1013.4
20260901185641 66 228 2.0 2.0 0.00 0.00 0.00 77 1013.6
20260901184136 65 180 3.0 3.0 0.00 0.00 0.00 79 1013.8
20260901182634 64 177 1.0 1.0 0.00 0.00 0.00 80 1013.8
20260901181133 65 269 1.0 2.0 0.00 0.00 0.00 80 1013.8
20260901175632 63 178 3.0 3.0 0.00 0.00 0.00 84 1013.8
20260901174130 63 185 2.0 2.0 0.00 0.00 0.00 86 1013.7
20260901172627 62 200 1.0 1.0 0.00 0.00 0.00 86 1013.8
20260901171125 61 175 1.0 1.0 0.00 0.00 0.00 88 1013.7
20260901165624 62 215 1.0 1.0 0.00 0.00 0.00 87 1013.6
20260901164122 64 182 3.0 3.0 0.00 0.00 0.00 85 1013.7
20260901162617 62 183 1.0 2.0 0.00 0.00 0.00 90 1013.6
20260901161115 60 168 0.0 0.0 0.00 0.00 0.00 94 1013.9
20260901155612 59 146 0.0 0.0 0.00 0.00 0.00 96 1013.9
20260901154108 58 181 0.0 0.0 0.00 0.00 0.00 97 1014.0
20260901152604 58 176 1.0 2.0 0.00 0.00 0.00 97 1013.9
20260901151104 58 152 0.0 0.0 0.00 0.00 0.00 96 1013.9
20260901145600 58 174 2.0 3.0 0.00 0.00 0.00 95 1013.8
20260901144056 59 180 2.0 2.0 0.00 0.00 0.00 93 1013.6
20260901142555 60 183 3.0 5.0 0.00 0.00 0.00 88 1013.6
20260901141050 60 179 3.0 5.0 0.00 0.00 0.00 86 1013.4
20260901135548 60 185 1.0 1.0 0.00 0.00 0.00 86 1013.3
20260901134046 60 214 3.0 3.0 0.00 0.00 0.00 86 1013.0
20260901132544 60 155 0.0 0.0 0.00 0.00 0.00 86 1013.2
20260901131040 60 173 0.0 1.0 0.00 0.00 0.00 87 1013.1
20260901125536 60 187 1.0 1.0 0.00 0.00 0.00 86 1013.1
20260901124032 60 172 1.0 1.0 0.00 0.00 0.00 87 1013.0
20260901122531 60 190 0.0 0.0 0.00 0.00 0.00 87 1013.1
20260901121027 60 179 1.0 1.0 0.00 0.00 0.00 87 1013.1
20260901115523 59 173 1.0 2.0 0.00 0.00 0.00 87 1013.0
20260901114020 59 207 0.0 0.0 0.00 0.00 0.00 87 1013.0
20260901112515 59 176 1.0 1.0 0.00 0.00 0.00 87 1012.9
20260901111014 59 175 1.0 2.0 0.00 0.00 0.00 88 1013.0
20260901105513 59 194 1.0 1.0 0.00 0.00 0.00 88 1012.7
20260901104009 58 172 0.0 1.0 0.00 0.00 0.00 90 1012.7
20260901102505 56 55 0.0 1.0 0.00 0.00 0.00 91 1012.6
20260901101001 56 52 1.0 2.0 0.00 0.00 0.00 92 1012.6
20260901095459 56 107 0.0 0.0 0.00 0.00 0.00 91 1012.6
20260901093958 57 180 0.0 0.0 0.00 0.00 0.00 90 1012.7
20260901092454 57 197 1.0 1.0 0.00 0.00 0.00 90 1012.7
20260901090952 58 167 0.0 1.0 0.00 0.00 0.00 90 1012.5
20260901085449 58 184 2.0 3.0 0.00 0.00 0.00 90 1012.5
20260901083948 58 176 2.0 2.0 0.00 0.00 0.00 90 1012.4
20260901082447 58 175 3.0 3.0 0.00 0.00 0.00 90 1012.6
20260901080944 57 184 0.0 1.0 0.00 0.00 0.00 90 1012.4
20260901075439 58 193 1.0 1.0 0.00 0.00 0.00 90 1012.5
20260901073934 59 178 3.0 3.0 0.00 0.00 0.00 87 1012.3
20260901072432 59 144 2.0 2.0 0.00 0.00 0.00 86 1012.3
20260901070931 60 185 0.0 1.0 0.00 0.00 0.00 86 1012.3
20260901065427 60 165 1.0 2.0 0.00 0.00 0.00 84 1012.1
20260901063927 60 175 1.0 1.0 0.00 0.00 0.00 83 1012.0
20260901062427 61 207 1.0 1.0 0.00 0.00 0.00 82 1011.9
20260901060925 61 185 0.0 1.0 0.00 0.00 0.00 82 1011.9
20260901055422 61 174 1.0 1.0 0.00 0.00 0.00 82 1011.8
20260901053917 62 166 0.0 1.0 0.00 0.00 0.00 81 1011.7
20260901052414 62 63 0.0 1.0 0.00 0.00 0.00 79 1011.5
20260901050909 63 215 1.0 1.0 0.00 0.00 0.00 78 1011.4
20260901045405 64 190 0.0 1.0 0.00 0.00 0.00 77 1011.2
20260901043904 64 210 0.0 1.0 0.00 0.00 0.00 75 1010.9
20260901042400 65 355 0.0 0.0 0.00 0.00 0.00 74 1010.7
20260901040856 66 148 0.0 0.0 0.00 0.00 0.00 71 1010.5
20260901035354 68 136 0.0 0.0 0.00 0.00 0.00 68 1010.2
20260901033854 69 82 1.0 1.0 0.00 0.00 0.00 65 1009.8
20260901032352 70 310 1.0 2.0 0.00 0.00 0.00 62 1009.6
20260901030848 71 341 1.0 1.0 0.00 0.00 0.00 59 1009.1
20260901025344 73 309 1.0 1.0 0.00 0.00 0.00 59 1009.0
20260901023842 74 289 1.0 2.0 0.00 0.00 0.00 55 1008.9
20260901022340 77 350 1.0 2.0 0.00 0.00 0.00 52 1008.8
20260901020837 79 178 0.0 0.0 0.00 0.00 0.00 50 1008.7
20260901015335 81 179 1.0 2.0 0.00 0.00 0.00 46 1008.6
20260901013831 83 118 0.0 0.0 0.00 0.00 0.00 43 1008.3
20260901012328 83 161 0.0 0.0 0.00 0.00 0.00 39 1008.2
20260901010824 84 139 0.0 0.0 0.00 0.00 0.00 40 1008.4
20260901005320 86 167 1.0 1.0 0.00 0.00 0.00 38 1008.4
20260901003820 84 348 1.0 1.0 0.00 0.00 0.00 36 1008.8
20260901002320 84 181 0.0 0.0 0.00 0.00 0.00 37 1008.6
20260901000816 85 154 0.0 0.0 0.00 0.00 0.00 39 1008.7
20260831235312 86 188 0.0 1.0 0.00 0.00 0.00 35 1008.6
20260831233808 87 327 1.0 2.0 0.00 0.00 0.00 35 1008.8
20260831232307 86 185 0.0 0.0 0.00 0.00 0.00 39 1008.8
20260831230805 84 199 0.0 0.0 0.00 0.00 0.00 40 1009.0
20260831225300 84 139 2.0 2.0 0.00 0.00 0.00 41 1009.0